[Iaude] MPEC L98: 2015 KV392 [a=1.41,e=0.17,i=11.6,H=24.5]
    mpec at cfa.harvard.edu 
    mpec at cfa.harvard.edu
       
    Sun Jun  9 14:01:05 EDT 2024
    
    
  
M.P.E.C. 2024-L98                                  Issued 2024 June 9, 17:59 UT
     The Minor Planet Electronic Circulars contain information on unusual
         minor planets, routine data on comets and natural satellites,
         and occasional editorial announcements.  They are published
    on behalf of Division F of the International Astronomical Union by the
          Minor Planet Center, Smithsonian Astrophysical Observatory,
                          Cambridge, MA 02138, U.S.A.
			  
             Prepared using the Tamkin Foundation Computer Network
                              MPC at CFA.HARVARD.EDU
            URL https://www.minorplanetcenter.net/    ISSN 1523-6714
                                   2015 KV392                                   
     The following astrometry was found among the isolated tracklets and linked
by A. Doppler.
Observations:
     K15Kd2V 5C2015 05 20.12379 15 16 08.51 -19 53 21.2          23.2   EL098W84
     K15Kd2V 5C2015 05 20.12696 15 16 08.27 -19 53 13.6                 EL098W84
     K15Kd2V 5C2015 05 20.13015 15 16 08.05 -19 53 05.9                 EL098W84
     K15Kd2V 5C2015 05 20.13332 15 16 07.83 -19 52 58.2                 EL098W84
     K15Kd2V 5C2015 05 20.13651 15 16 07.61 -19 52 50.4                 EL098W84
     K15Kd2V 5C2015 05 21.12378 15 15 07.72 -19 12 23.1          23.0   EL098W84
     K15Kd2V 5C2015 05 21.12693 15 15 07.49 -19 12 15.2                 EL098W84
     K15Kd2V 5C2015 05 21.13016 15 15 07.26 -19 12 07.2                 EL098W84
     K15Kd2V 5C2015 05 21.13338 15 15 07.03 -19 11 59.3                 EL098W84
     K15Kd2V 5C2015 05 21.13655 15 15 06.81 -19 11 51.6                 EL098W84
     K15Kd2V 5C2015 05 24.07180 15 12 14.74 -17 08 48.8          22.8   EL098W84
     K15Kd2V 5C2015 05 24.07497 15 12 14.54 -17 08 40.7                 EL098W84
     K15Kd2V 5C2015 05 24.07813 15 12 14.33 -17 08 32.6                 EL098W84
     K15Kd2V 5C2015 05 24.08131 15 12 14.12 -17 08 24.7                 EL098W84
     K15Kd2V*5C2015 05 24.11549 15 12 11.80 -17 06 58.3          22.9 VLEL098W84
     K15Kd2V 5C2015 05 24.11866 15 12 11.58 -17 06 50.2                LEL098W84
     K15Kd2V 5C2015 05 24.12186 15 12 11.37 -17 06 42.1                LEL098W84
     K15Kd2V 5C2015 05 24.12505 15 12 11.15 -17 06 34.2                LEL098W84
     K15Kd2V 5C2015 05 24.12830 15 12 10.93 -17 06 25.6                LEL098W84
Observer details:
W84 Cerro Tololo-DECam.  Observers L. Allen, D. Trilling, D. James, D.
    Herrera, C. Fuentes, J. Rajagopal, T. Axelrod.  Measurer F. Valdes.  4.0-m
    CTIO reflector + DECam, 4.0-m CTIO reflector.
Orbital elements:
2015 KV392                                               Earth MOID = 0.2265 AU
Epoch 2024 Mar. 31.0 TT = JDT 2460400.5                 Veres                   
M  52.15962              (2000.0)            P               Q                  
n   0.58926991     Peri.   72.30589     +0.64208899     +0.74691794             
a   1.4090504      Node   238.90692     -0.75735315     +0.58306386             
e   0.1714888      Incl.   11.63689     -0.11890307     +0.31960932             
P   1.67           H   24.53          G   0.15           U   9                  
Residuals in seconds of arc
150520 W84  0.0   0.1+    150521 W84  0.0   0.1+    150524 W84  0.0   0.1-
150520 W84  0.2-  0.0     150521 W84  0.0   0.0     150524 W84  0.1-  0.0
150520 W84  0.1-  0.0     150521 W84  0.1+  0.1-    150524 W84  0.0   0.0
150520 W84  0.0   0.0     150524 W84  0.1-  0.0     150524 W84  0.0   0.3-
150520 W84  0.2+  0.0     150524 W84  0.1+  0.1+    150524 W84  0.0   0.1+
150521 W84  0.0   0.1-    150524 W84  0.1+  0.2+
150521 W84  0.0   0.0     150524 W84  0.2+  0.1+
Ephemeris:
2015 KV392               a,e,i = 1.41, 0.17, 12                  q = 1.1674
Date    TT    R. A. (2000) Decl.     Delta      r    Elong.  Phase     V
2024 05 10    03 00 25.6 +18 33 19   2.3988  1.3902     2.1     1.5    27.3
...
2024 05 25    03 46 34.4 +20 20 10   2.4336  1.4274     5.0     3.5    27.6
...
2024 06 02    04 10 55.4 +20 57 48   2.4483  1.4468     7.0     4.9    27.7
...
2024 06 08    04 29 02.3 +21 17 08   2.4571  1.4610     8.5     5.9    27.8
2024 06 09    04 32 02.6 +21 19 36   2.4584  1.4633     8.8     6.1    27.8
2024 06 10    04 35 02.6 +21 21 53   2.4597  1.4657     9.0     6.2    27.8
...
2024 06 16    04 52 56.8 +21 31 04   2.4659  1.4794    10.6     7.3    27.9
...
2024 06 24    05 16 31.9 +21 31 42   2.4710  1.4972    12.8     8.7    28.0
...
2024 07 09    05 59 44.6 +20 58 19   2.4700  1.5285    17.2    11.3    28.1
M. P. C. Staff               (C) Copyright 2024 MPC           M.P.E.C. 2024-L98
    
    
More information about the Iaude
mailing list